FW6302 Weather Reports


time (UTC)temp
C
wind
direction
speed
KPH
gust
KPH
rain 1hr
cm
rain 24hr
cm
rain mn
cm
humidity
%
barometer
mb
20260507032546 7 214 0.0 1.6 0.00 0.00 0.00 48 1016.5
20260507032044 7 214 1.6 1.6 0.00 0.00 0.00 48 1016.6
20260507031544 8 215 0.0 1.6 0.00 0.00 0.00 48 1016.6
20260507031044 8 215 0.0 1.6 0.00 0.00 0.00 45 1016.6
20260507030544 8 215 0.0 1.6 0.00 0.00 0.00 44 1016.7
20260507030043 9 214 0.0 1.6 0.00 0.00 0.00 44 1016.7
20260507025543 9 214 0.0 0.0 0.00 0.00 0.00 43 1016.7
20260507025042 9 214 0.0 1.6 0.00 0.00 0.00 45 1016.7
20260507024543 9 215 0.0 1.6 0.00 0.00 0.00 43 1016.8
20260507024146 10 214 0.0 1.6 0.00 0.00 0.00 43 1016.7
20260507023543 10 215 0.0 1.6 0.00 0.00 0.00 40 1016.8
20260507023042 11 286 0.0 1.6 0.00 0.00 0.00 41 1016.7
20260507022542 11 286 0.0 1.6 0.00 0.00 0.00 39 1016.7
20260507022044 11 286 0.0 1.6 0.00 0.00 0.00 38 1016.6
20260507021545 11 286 0.0 1.6 0.00 0.00 0.00 36 1016.6
20260507021042 11 290 0.0 3.2 0.00 0.00 0.00 36 1016.6
20260507020541 11 292 1.6 3.2 0.00 0.00 0.00 36 1016.7
20260507020042 11 262 1.6 6.4 0.00 0.00 0.00 36 1016.8
20260507015540 12 278 3.2 6.4 0.00 0.00 0.00 35 1016.8
20260507015040 12 288 3.2 6.4 0.00 0.00 0.00 35 1016.8
20260507014542 12 290 3.2 9.7 0.00 0.00 0.00 35 1016.8
20260507014040 12 273 3.2 9.7 0.00 0.00 0.00 34 1016.8
20260507013542 12 308 1.6 9.7 0.00 0.00 0.00 34 1016.8
20260507013040 12 261 4.8 9.7 0.00 0.00 0.00 34 1016.8
20260507012542 12 283 6.4 8.0 0.00 0.00 0.00 33 1016.8
20260507012039 12 310 3.2 8.0 0.00 0.00 0.00 33 1016.7
20260507011546 12 297 3.2 9.7 0.00 0.00 0.00 33 1016.7
20260507011039 12 283 6.4 11.3 0.00 0.00 0.00 32 1016.7
20260507010539 12 316 8.0 11.3 0.00 0.00 0.00 32 1016.7
20260507010039 12 300 3.2 12.9 0.00 0.00 0.00 33 1016.8
20260507005538 12 306 8.0 19.3 0.00 0.00 0.00 32 1016.7
20260507005041 12 306 8.0 19.3 0.00 0.00 0.00 33 1016.8
20260507004538 12 271 9.7 19.3 0.00 0.00 0.00 32 1016.8
20260507004038 12 262 8.0 19.3 0.00 0.00 0.00 32 1016.7
20260507003539 13 284 11.3 20.9 0.00 0.00 0.00 31 1016.7
20260507003037 13 294 11.3 20.9 0.00 0.00 0.00 32 1016.7
20260507002536 13 285 11.3 19.3 0.00 0.00 0.00 31 1016.7
20260507002036 13 285 6.4 24.1 0.00 0.00 0.00 32 1016.8
20260507001547 13 274 12.9 24.1 0.00 0.00 0.00 31 1016.7
20260507001035 13 286 9.7 19.3 0.00 0.00 0.00 32 1016.8
20260507000537 13 295 8.0 22.5 0.00 0.00 0.00 31 1016.8
20260507000036 13 292 14.5 24.1 0.00 0.00 0.00 31 1016.9
20260506235535 13 313 16.1 24.1 0.00 0.00 0.00 30 1016.9
20260506235036 13 275 8.0 25.7 0.00 0.00 0.00 31 1017.0
20260506234542 13 290 14.5 25.7 0.00 0.00 0.00 31 1016.9
20260506234033 13 229 9.7 24.1 0.00 0.00 0.00 31 1016.9
20260506233533 13 293 12.9 24.1 0.00 0.00 0.00 31 1016.9
20260506233034 13 299 11.3 22.5 0.00 0.00 0.00 32 1017.0
20260506232532 13 274 8.0 16.1 0.00 0.00 0.00 32 1017.0
20260506232032 13 283 11.3 17.7 0.00 0.00 0.00 32 1017.1
20260506231536 13 278 8.0 30.6 0.00 0.00 0.00 33 1017.2
20260506231032 13 314 14.5 30.6 0.00 0.00 0.00 32 1017.2
20260506230532 13 273 9.7 22.5 0.00 0.00 0.00 31 1017.2
20260506230031 13 277 9.7 22.5 0.00 0.00 0.00 32 1017.2
20260506225531 13 289 12.9 25.7 0.00 0.00 0.00 31 1017.3
20260506225030 13 295 16.1 25.7 0.00 0.00 0.00 32 1017.3
20260506224531 13 245 16.1 24.1 0.00 0.00 0.00 31 1017.3
20260506224029 13 321 11.3 24.1 0.00 0.00 0.00 32 1017.3
20260506223529 13 328 14.5 24.1 0.00 0.00 0.00 32 1017.3
20260506223028 13 295 11.3 25.7 0.00 0.00 0.00 32 1017.4
20260506222529 13 272 14.5 25.7 0.00 0.00 0.00 31 1017.4
20260506222030 13 283 11.3 29.0 0.00 0.00 0.00 32 1017.5
20260506221528 13 271 17.7 29.0 0.00 0.00 0.00 31 1017.6
20260506221028 13 314 16.1 27.4 0.00 0.00 0.00 32 1017.6
20260506220530 13 300 12.9 22.5 0.00 0.00 0.00 32 1017.6
20260506220027 13 265 9.7 27.4 0.00 0.00 0.00 32 1017.6
20260506215526 13 303 11.3 27.4 0.00 0.00 0.00 33 1017.6
20260506215026 12 286 16.1 29.0 0.00 0.00 0.00 32 1017.7
20260506214526 13 323 14.5 29.0 0.00 0.00 0.00 33 1017.7
20260506214026 13 349 16.1 37.0 0.00 0.00 0.00 33 1017.8
20260506213528 13 281 24.1 37.0 0.00 0.00 0.00 31 1017.8
20260506213025 13 284 12.9 24.1 0.00 0.00 0.00 32 1017.9
20260506212529 13 248 6.4 22.5 0.00 0.00 0.00 33 1018.0
20260506212025 12 299 12.9 30.6 0.00 0.00 0.00 32 1018.0
20260506211525 12 266 12.9 29.0 0.00 0.00 0.00 33 1018.1
20260506211025 12 289 11.3 22.5 0.00 0.00 0.00 34 1018.1
20260506210527 12 281 12.9 29.0 0.00 0.00 0.00 33 1018.2
20260506210024 12 285 14.5 33.8 0.00 0.00 0.00 33 1018.3
20260506205523 12 259 24.1 33.8 0.00 0.00 0.00 32 1018.3
20260506205023 13 291 12.9 33.8 0.00 0.00 0.00 33 1018.4
20260506204522 13 293 22.5 33.8 0.00 0.00 0.00 33 1018.6
20260506204022 12 343 12.9 30.6 0.00 0.00 0.00 33 1018.5
20260506203521 12 326 12.9 30.6 0.00 0.00 0.00 34 1018.7
20260506203025 12 311 14.5 25.7 0.00 0.00 0.00 33 1018.8
20260506202521 12 280 17.7 35.4 0.00 0.00 0.00 33 1018.7
20260506202021 12 285 19.3 35.4 0.00 0.00 0.00 33 1018.8
20260506201620 12 294 9.7 27.4 0.00 0.00 0.00 35 1018.8
20260506201018 12 330 16.1 30.6 0.00 0.00 0.00 35 1018.9
20260506200516 12 320 14.5 25.7 0.00 0.00 0.00 35 1019.0
20260506200019 12 303 14.5 25.7 0.00 0.00 0.00 34 1019.1
20260506195515 12 328 9.7 24.1 0.00 0.00 0.00 36 1019.2
20260506195015 11 285 12.9 30.6 0.00 0.00 0.00 35 1019.3
20260506194515 11 288 22.5 30.6 0.00 0.00 0.00 35 1019.3
20260506194015 11 286 8.0 19.3 0.00 0.00 0.00 37 1019.3
20260506193513 11 298 11.3 20.9 0.00 0.00 0.00 38 1019.4
20260506193014 11 280 12.9 32.2 0.00 0.00 0.00 38 1019.5
20260506192513 11 297 16.1 32.2 0.00 0.00 0.00 36 1019.6
20260506192014 11 305 12.9 30.6 0.00 0.00 0.00 37 1019.6
20260506191516 11 323 14.5 35.4 0.00 0.00 0.00 36 1019.6
20260506191013 11 18 19.3 30.6 0.00 0.00 0.00 36 1019.5
20260506190511 11 319 16.1 27.4 0.00 0.00 0.00 37 1019.6
20260506190011 11 277 14.5 32.2 0.00 0.00 0.00 37 1019.8
20260506185510 11 273 16.1 32.2 0.00 0.00 0.00 36 1019.8
20260506185011 11 283 12.9 32.2 0.00 0.00 0.00 37 1019.9
20260506184510 11 295 17.7 33.8 0.00 0.00 0.00 37 1020.0
20260506184011 11 310 16.1 33.8 0.00 0.00 0.00 37 1020.0
20260506183510 11 271 12.9 32.2 0.00 0.00 0.00 37 1020.0
20260506183012 11 279 14.5 32.2 0.00 0.00 0.00 39 1020.1
20260506182508 11 278 19.3 30.6 0.00 0.00 0.00 37 1020.1
20260506182012 11 318 19.3 30.6 0.00 0.00 0.00 37 1020.1
20260506181507 11 283 9.7 27.4 0.00 0.00 0.00 38 1020.3
20260506181008 11 281 14.5 27.4 0.00 0.00 0.00 38 1020.3
20260506180505 11 28 6.4 33.8 0.00 0.00 0.00 41 1020.4
20260506180004 10 293 17.7 38.6 0.00 0.00 0.00 38 1020.5
20260506175503 11 295 22.5 38.6 0.00 0.00 0.00 37 1020.5
20260506175003 11 284 17.7 32.2 0.00 0.00 0.00 38 1020.6
20260506174502 10 278 14.5 30.6 0.00 0.00 0.00 38 1020.6
20260506174003 10 285 12.9 30.6 0.00 0.00 0.00 38 1020.6
20260506173600 10 352 12.9 35.4 0.00 0.00 0.00 38 1020.5
20260506173100 10 313 17.7 35.4 0.00 0.00 0.00 39 1020.6
20260506172559 10 311 16.1 35.4 0.00 0.00 0.00 38 1020.6
20260506172059 10 322 14.5 32.2 0.00 0.00 0.00 39 1020.6
20260506171610 10 304 16.1 29.0 0.00 0.00 0.00 40 1020.6
20260506171058 10 338 14.5 30.6 0.00 0.00 0.00 40 1020.7
20260506170558 9 344 16.1 32.2 0.00 0.00 0.00 39 1020.6
20260506170103 10 269 17.7 33.8 0.00 0.00 0.00 39 1020.6
20260506165600 10 287 12.9 33.8 0.00 0.00 0.00 39 1020.7
20260506165056 10 289 12.9 24.1 0.00 0.00 0.00 40 1020.7
20260506164600 10 312 8.0 25.7 0.00 0.00 0.00 40 1020.7
20260506164054 10 283 8.0 24.1 0.00 0.00 0.00 43 1020.8
20260506163553 9 255 14.5 24.1 0.00 0.00 0.00 42 1020.9
20260506163112 8 324 14.5 25.7 0.00 0.00 0.00 43 1020.9
20260506162553 8 315 16.1 30.6 0.00 0.00 0.00 43 1020.8
20260506162053 8 316 11.3 32.2 0.00 0.00 0.00 42 1021.0
20260506161552 9 6 19.3 32.2 0.00 0.00 0.00 42 1020.8
20260506161051 9 342 16.1 27.4 0.00 0.00 0.00 42 1020.9
20260506160551 8 276 16.1 27.4 0.00 0.00 0.00 43 1020.9
20260506160051 8 320 16.1 29.0 0.00 0.00 0.00 43 1020.8
20260506155548 8 287 16.1 30.6 0.00 0.00 0.00 40 1020.8
20260506155048 8 278 12.9 30.6 0.00 0.00 0.00 43 1020.9
20260506154552 8 342 17.7 37.0 0.00 0.00 0.00 42 1020.8
20260506154048 8 290 19.3 37.0 0.00 0.00 0.00 42 1020.9
20260506153544 8 293 12.9 30.6 0.00 0.00 0.00 44 1020.9
20260506153044 8 307 16.1 30.6 0.00 0.00 0.00 43 1020.9
20260506152545 8 312 12.9 29.0 0.00 0.00 0.00 45 1020.9
20260506152043 8 319 14.5 25.7 0.00 0.00 0.00 46 1020.9
20260506151543 8 335 11.3 29.0 0.00 0.00 0.00 47 1021.0
20260506151042 8 298 14.5 29.0 0.00 0.00 0.00 47 1020.9
20260506150541 7 329 9.7 25.7 0.00 0.00 0.00 49 1020.9
20260506150039 7 304 12.9 25.7 0.00 0.00 0.00 49 1020.8
20260506145537 7 309 4.8 19.3 0.00 0.00 0.00 53 1020.8
20260506145037 7 303 11.3 24.1 0.00 0.00 0.00 52 1021.1
20260506144537 7 288 12.9 24.1 0.00 0.00 0.00 52 1021.1
20260506144036 7 274 4.8 20.9 0.00 0.00 0.00 53 1021.1
20260506143535 7 278 6.4 20.9 0.00 0.00 0.00 53 1021.1
20260506143036 6 290 11.3 19.3 0.00 0.00 0.00 53 1021.2
20260506142533 6 245 11.3 17.7 0.00 0.00 0.00 56 1021.2
20260506142032 6 304 3.2 11.3 0.00 0.00 0.00 58 1021.2
20260506141530 6 257 0.0 12.9 0.00 0.00 0.00 60 1021.2
20260506141029 5 311 4.8 12.9 0.00 0.00 0.00 59 1021.3
20260506140528 5 281 8.0 12.9 0.00 0.00 0.00 60 1021.2
20260506140030 5 290 6.4 11.3 0.00 0.00 0.00 61 1021.3
20260506135529 5 271 3.2 8.0 0.00 0.00 0.00 62 1021.3
20260506135029 5 277 3.2 9.7 0.00 0.00 0.00 62 1021.2
20260506134523 5 285 3.2 9.7 0.00 0.00 0.00 64 1021.1
20260506134022 4 275 4.8 9.7 0.00 0.00 0.00 64 1021.1
20260506133522 4 281 4.8 11.3 0.00 0.00 0.00 64 1021.1
20260506133021 3 317 4.8 11.3 0.00 0.00 0.00 65 1021.1
20260506132522 3 27 6.4 12.9 0.00 0.00 0.00 66 1021.1
20260506132020 3 331 8.0 12.9 0.00 0.00 0.00 66 1021.1
20260506131521 3 313 3.2 8.0 0.00 0.00 0.00 68 1021.0
20260506131020 2 287 3.2 8.0 0.00 0.00 0.00 68 1021.0
20260506130520 2 288 4.8 8.0 0.00 0.00 0.00 68 1020.9
20260506130022 2 308 1.6 6.4 0.00 0.00 0.00 69 1021.0
20260506125518 2 274 3.2 6.4 0.00 0.00 0.00 69 1020.9
20260506125018 2 274 1.6 6.4 0.00 0.00 0.00 69 1020.9
20260506124518 1 290 3.2 6.4 0.00 0.00 0.00 69 1020.8
20260506124019 1 226 0.0 1.6 0.00 0.00 0.00 71 1020.8
20260506123520 1 226 0.0 1.6 0.00 0.00 0.00 73 1020.7
20260506123018 0 222 0.0 0.0 0.00 0.00 0.00 73 1020.7
20260506122515 0 222 0.0 1.6 0.00 0.00 0.00 75 1020.6
20260506122017 0 222 0.0 1.6 0.00 0.00 0.00 75 1020.7
20260506121515 0 222 0.0 1.6 0.00 0.00 0.00 75 1020.6
20260506121016 0 222 0.0 4.8 0.00 0.00 0.00 75 1020.4
20260506120514 0 222 1.6 4.8 0.00 0.00 0.00 73 1020.4
20260506120013 0 178 1.6 3.2 0.00 0.00 0.00 73 1020.2
20260506115513 0 236 0.0 1.6 0.00 0.00 0.00 75 1020.2
20260506115013 0 235 0.0 4.8 0.00 0.00 0.00 74 1020.2
20260506114512 -1 235 1.6 4.8 0.00 0.00 0.00 75 1020.1
20260506114011 -1 232 3.2 4.8 0.00 0.00 0.00 75 1019.9
20260506113510 -1 210 1.6 4.8 0.00 0.00 0.00 76 1019.9
20260506113009 -1 342 1.6 3.2 0.00 0.00 0.00 76 1019.8
20260506112509 -1 342 0.0 0.0 0.00 0.00 0.00 76 1019.7
20260506112006 -1 342 0.0 0.0 0.00 0.00 0.00 76 1019.7
20260506111506 -1 342 0.0 0.0 0.00 0.00 0.00 74 1019.6
20260506111005 0 342 0.0 1.6 0.00 0.00 0.00 75 1019.4
20260506110505 -1 342 0.0 1.6 0.00 0.00 0.00 75 1019.2
20260506110007 0 342 0.0 1.6 0.00 0.00 0.00 75 1019.2
20260506105503 0 342 1.6 3.2 0.00 0.00 0.00 72 1019.2
20260506105006 0 342 0.0 4.8 0.00 0.00 0.00 71 1019.2
20260506104503 0 342 0.0 4.8 0.00 0.00 0.00 71 1019.1
20260506104002 0 342 1.6 4.8 0.00 0.00 0.00 71 1019.1
20260506103502 0 326 1.6 6.4 0.00 0.00 0.00 71 1019.0
20260506103003 0 333 3.2 6.4 0.00 0.00 0.00 70 1019.1
20260506102503 0 349 3.2 6.4 0.00 0.00 0.00 70 1019.1
20260506102002 0 331 3.2 9.7 0.00 0.00 0.00 70 1019.3
20260506101503 0 331 4.8 9.7 0.00 0.00 0.00 69 1019.3
20260506101001 0 321 4.8 9.7 0.00 0.00 0.00 71 1019.3
20260506100600 0 317 6.4 9.7 0.00 0.00 0.00 72 1019.3
20260506100100 0 351 3.2 4.8 0.00 0.00 0.00 73 1019.3
20260506095558 0 246 1.6 3.2 0.00 0.00 0.00 75 1019.1
20260506095100 0 246 0.0 1.6 0.00 0.00 0.00 74 1019.1
20260506094600 0 246 0.0 3.2 0.00 0.00 0.00 73 1019.0
20260506094057 0 246 1.6 3.2 0.00 0.00 0.00 74 1019.1
20260506093556 0 246 0.0 3.2 0.00 0.00 0.00 76 1019.1
20260506093059 0 281 0.0 0.0 0.00 0.00 0.00 75 1018.9
20260506092555 0 281 0.0 0.0 0.00 0.00 0.00 74 1018.7
20260506092055 0 281 0.0 0.0 0.00 0.00 0.00 74 1018.7
20260506091555 0 281 0.0 0.0 0.00 0.00 0.00 73 1018.7
20260506091057 0 281 0.0 0.0 0.00 0.00 0.00 73 1018.5
20260506090655 0 281 0.0 0.0 0.00 0.00 0.00 73 1018.6
20260506090105 0 281 0.0 0.0 0.00 0.00 0.00 72 1018.8
20260506085553 0 281 0.0 1.6 0.00 0.00 0.00 71 1018.7
20260506085055 0 281 0.0 3.2 0.00 0.00 0.00 71 1018.7
20260506084609 1 281 0.0 3.2 0.00 0.00 0.00 70 1018.6
20260506084051 1 275 1.6 3.2 0.00 0.00 0.00 71 1018.5
20260506083551 0 304 0.0 4.8 0.00 0.00 0.00 74 1018.6
20260506083053 0 267 0.0 1.6 0.00 0.00 0.00 76 1018.4
20260506082549 0 267 0.0 0.0 0.00 0.00 0.00 74 1018.3
20260506082048 0 267 0.0 0.0 0.00 0.00 0.00 74 1018.4
20260506081549 0 267 0.0 0.0 0.00 0.00 0.00 73 1018.3
20260506081049 0 267 0.0 0.0 0.00 0.00 0.00 73 1018.2
20260506080546 0 267 0.0 0.0 0.00 0.00 0.00 73 1018.1
20260506073040 1 110 0.0 0.0 0.00 0.00 0.00 70 1017.8
20260506072539 1 110 0.0 1.6 0.00 0.00 0.00 68 1017.7
20260506072037 1 110 0.0 3.2 0.00 0.00 0.00 66 1017.8
20260506071538 1 110 0.0 4.8 0.00 0.00 0.00 65 1017.9
20260506071037 2 91 3.2 4.8 0.00 0.00 0.00 65 1017.9
20260506070535 2 326 0.0 0.0 0.00 0.00 0.00 65 1018.1
20260506062025 3 314 1.6 3.2 0.00 0.00 0.00 58 1018.2
20260506061527 3 303 0.0 0.0 0.00 0.00 0.00 58 1018.2
20260506061026 3 303 0.0 0.0 0.00 0.00 0.00 58 1018.1
20260506060523 3 304 0.0 0.0 0.00 0.00 0.00 58 1018.0
20260506051014 4 345 0.0 0.0 0.00 0.00 0.00 58 1017.3
20260506050514 4 345 0.0 3.2 0.00 0.00 0.00 58 1017.3
20260506045013 4 319 1.6 4.8 0.00 0.00 0.00 57 1017.2
20260506044516 5 329 1.6 4.8 0.00 0.00 0.00 57 1017.2
20260506044011 5 331 1.6 4.8 0.00 0.00 0.00 56 1017.3
20260506043511 5 330 1.6 3.2 0.00 0.00 0.00 55 1017.3
20260506043011 5 330 1.6 3.2 0.00 0.00 0.00 55 1017.3
20260506042511 5 315 0.0 3.2 0.00 0.00 0.00 54 1017.3
20260506042010 5 327 1.6 4.8 0.00 0.00 0.00 53 1017.2
20260506041514 5 302 1.6 4.8 0.00 0.00 0.00 52 1017.3
20260506041010 5 311 3.2 6.4 0.00 0.00 0.00 52 1017.2
20260506040612 5 309 3.2 6.4 0.00 0.00 0.00 52 1017.3
20260506040010 5 304 3.2 6.4 0.00 0.00 0.00 51 1017.3
20260506035514 5 329 3.2 9.7 0.00 0.00 0.00 51 1017.3
20260506035010 6 319 4.8 9.7 0.00 0.00 0.00 50 1017.3
20260506034510 6 331 6.4 11.3 0.00 0.00 0.00 51 1017.4
20260506034011 6 307 3.2 9.7 0.00 0.00 0.00 50 1017.2
20260506033511 6 335 4.8 11.3 0.00 0.00 0.00 49 1017.2
20260506033008 6 332 4.8 12.9 0.00 0.00 0.00 49 1017.1